Location: Trebic
(49.2170°N, 15.8830°E)
Time: 09:58:06
(UTC+02:00)

Transit 4A - Pass Details

Date: 29 August 2019
Orbit: 865 x 980 km, 66.8° (Epoch: 19 September)

Event Time Altitude Azimuth Distance (km) Brightness Sun altitude
Rises 00:28:39 0° 323° (NW) 3,657 11.9 -30.9°
Reaches altitude 10° 00:31:34 10° 334° (NNW) 2,693 11.1 -31.0°
Maximum altitude 00:37:04 31° 35° (NE) 1,598 9.4 -31.1°
Enters shadow 00:40:19 19° 81° (E) 2,032 9.7 -31.1°
Drops below altitude 10° 00:42:24 10° 96° (E) 2,615 - -31.1°
Sets 00:45:12 0° 107° (ESE) 3,535 - -31.2°
